TimeCDT,TemperatureF,Dew PointF,Humidity,Sea Level PressureIn,VisibilityMPH,Wind Direction,Wind SpeedMPH,Gust SpeedMPH,PrecipitationIn,Events,Conditions,WindDirDegrees,DateUTC
12:15 AM,52.0,46.4,81,30.15,10.0,Calm,Calm,-,N/A,,Clear,0,2013-08-23 05:15:00
12:35 AM,51.8,45.9,80,30.16,10.0,Calm,Calm,-,N/A,,Clear,0,2013-08-23 05:35:00
12:55 AM,51.6,46.2,82,30.16,10.0,Calm,Calm,-,N/A,,Clear,0,2013-08-23 05:55:00
1:15 AM,49.6,45.0,84,30.16,10.0,Calm,Calm,-,N/A,,Clear,0,2013-08-23 06:15:00
1:35 AM,49.1,45.1,86,30.16,10.0,Calm,Calm,-,N/A,,Clear,0,2013-08-23 06:35:00
1:55 AM,48.6,44.6,86,30.15,10.0,Calm,Calm,-,N/A,,Clear,0,2013-08-23 06:55:00
2:15 AM,48.2,44.4,87,30.15,10.0,Calm,Calm,-,N/A,,Clear,0,2013-08-23 07:15:00
2:35 AM,48.4,44.4,86,30.15,10.0,Calm,Calm,-,N/A,,Clear,0,2013-08-23 07:35:00
2:55 AM,48.2,43.5,84,30.15,10.0,Calm,Calm,-,N/A,,Clear,0,2013-08-23 07:55:00
3:15 AM,47.3,43.3,86,30.15,10.0,Calm,Calm,-,N/A,,Clear,0,2013-08-23 08:15:00
3:35 AM,46.8,42.6,85,30.15,10.0,Calm,Calm,-,N/A,,Clear,0,2013-08-23 08:35:00
3:55 AM,46.6,42.8,87,30.16,10.0,Calm,Calm,-,N/A,,Clear,0,2013-08-23 08:55:00
4:15 AM,46.4,43.2,88,30.16,10.0,Calm,Calm,-,N/A,,Clear,0,2013-08-23 09:15:00
4:35 AM,45.3,42.8,91,30.16,10.0,Calm,Calm,-,N/A,,Clear,0,2013-08-23 09:35:00
4:55 AM,45.5,43.2,92,30.16,10.0,Calm,Calm,-,N/A,,Clear,0,2013-08-23 09:55:00
5:15 AM,45.1,42.1,89,30.16,10.0,Calm,Calm,-,N/A,,Clear,0,2013-08-23 10:15:00
5:35 AM,44.8,41.0,87,30.17,10.0,Calm,Calm,-,N/A,,Clear,0,2013-08-23 10:35:00
5:55 AM,44.1,41.0,89,30.17,10.0,Calm,Calm,-,N/A,,Clear,0,2013-08-23 10:55:00
6:15 AM,45.3,41.7,87,30.17,10.0,Calm,Calm,-,N/A,,Clear,0,2013-08-23 11:15:00
6:35 AM,44.4,42.1,91,30.18,10.0,Calm,Calm,-,N/A,,Clear,0,2013-08-23 11:35:00
6:55 AM,46.0,42.8,88,30.18,10.0,Calm,Calm,-,N/A,,Clear,0,2013-08-23 11:55:00
7:15 AM,47.5,44.8,90,30.18,10.0,Calm,Calm,-,N/A,,Clear,0,2013-08-23 12:15:00
7:35 AM,50.5,47.7,90,30.18,10.0,Calm,Calm,-,N/A,,Clear,0,2013-08-23 12:35:00
7:55 AM,54.3,49.5,84,30.18,10.0,Calm,Calm,-,N/A,,Clear,0,2013-08-23 12:55:00
8:15 AM,60.1,50.9,72,30.18,10.0,Calm,Calm,-,N/A,,Clear,0,2013-08-23 13:15:00
8:35 AM,63.0,51.3,66,30.18,10.0,Calm,Calm,-,N/A,,Clear,0,2013-08-23 13:35:00
8:55 AM,64.8,51.8,63,30.17,10.0,Calm,Calm,-,N/A,,Clear,0,2013-08-23 13:55:00
9:15 AM,67.5,52.2,58,30.17,10.0,SSE,3.5,-,N/A,,Clear,160,2013-08-23 14:15:00
9:35 AM,69.4,52.0,54,30.16,10.0,SSE,3.5,-,N/A,,Clear,160,2013-08-23 14:35:00
9:55 AM,71.4,52.3,51,30.16,10.0,ESE,3.5,-,N/A,,Clear,120,2013-08-23 14:55:00
10:15 AM,73.4,49.3,42,30.16,10.0,SE,4.6,-,N/A,,Clear,130,2013-08-23 15:15:00
10:35 AM,75.2,50.2,41,30.16,10.0,SE,5.8,-,N/A,,Clear,140,2013-08-23 15:35:00
10:55 AM,76.3,49.3,39,30.16,10.0,SE,4.6,-,N/A,,Clear,130,2013-08-23 15:55:00
11:15 AM,77.9,46.6,33,30.16,10.0,Calm,Calm,-,N/A,,Clear,0,2013-08-23 16:15:00
11:35 AM,78.1,45.5,32,30.15,10.0,Calm,Calm,-,N/A,,Clear,0,2013-08-23 16:35:00
11:55 AM,79.5,45.3,30,30.15,10.0,ESE,5.8,-,N/A,,Clear,120,2013-08-23 16:55:00
12:15 PM,79.9,45.5,30,30.15,10.0,South,3.5,-,N/A,,Clear,190,2013-08-23 17:15:00
12:35 PM,80.6,45.9,29,30.14,10.0,Calm,Calm,-,N/A,,Clear,0,2013-08-23 17:35:00
12:55 PM,81.7,46.2,29,30.13,10.0,SE,5.8,-,N/A,,Clear,130,2013-08-23 17:55:00
1:15 PM,82.4,45.9,28,30.13,10.0,WSW,4.6,-,N/A,,Clear,240,2013-08-23 18:15:00
1:35 PM,82.2,45.3,27,30.13,10.0,SSE,5.8,-,N/A,,Clear,160,2013-08-23 18:35:00
1:55 PM,82.8,46.0,28,30.12,10.0,SE,6.9,-,N/A,,Clear,140,2013-08-23 18:55:00
2:15 PM,82.9,47.1,29,30.11,10.0,Calm,Calm,-,N/A,,Clear,0,2013-08-23 19:15:00
2:35 PM,83.8,47.5,28,30.10,10.0,SE,9.2,-,N/A,,Clear,130,2013-08-23 19:35:00
2:55 PM,84.2,47.7,28,30.10,10.0,SSE,8.1,-,N/A,,Clear,160,2013-08-23 19:55:00
3:15 PM,84.6,48.4,28,30.10,10.0,South,5.8,-,N/A,,Clear,180,2013-08-23 20:15:00
3:35 PM,84.4,48.2,28,30.09,10.0,SSW,5.8,-,N/A,,Clear,200,2013-08-23 20:35:00
3:55 PM,84.6,48.6,29,30.09,10.0,SW,6.9,-,N/A,,Clear,230,2013-08-23 20:55:00
4:15 PM,84.6,49.6,30,30.08,10.0,South,9.2,-,N/A,,Clear,190,2013-08-23 21:15:00
4:35 PM,84.7,49.1,29,30.08,10.0,South,9.2,-,N/A,,Clear,180,2013-08-23 21:35:00
4:55 PM,84.6,50.0,30,30.08,10.0,South,6.9,-,N/A,,Clear,170,2013-08-23 21:55:00
5:15 PM,84.4,51.3,32,30.08,10.0,South,6.9,-,N/A,,Clear,180,2013-08-23 22:15:00
5:35 PM,84.2,52.0,33,30.07,10.0,SSE,4.6,-,N/A,,Clear,160,2013-08-23 22:35:00
5:55 PM,83.5,53.4,35,30.07,10.0,SSE,4.6,-,N/A,,Clear,150,2013-08-23 22:55:00
6:15 PM,83.1,55.4,38,30.07,10.0,South,6.9,-,N/A,,Clear,180,2013-08-23 23:15:00
6:35 PM,82.6,56.3,40,30.06,10.0,South,5.8,-,N/A,,Clear,180,2013-08-23 23:35:00
6:55 PM,81.9,56.3,41,30.06,10.0,South,5.8,-,N/A,,Clear,180,2013-08-23 23:55:00
7:15 PM,80.8,56.3,43,30.06,10.0,South,5.8,-,N/A,,Clear,190,2013-08-24 00:15:00
7:35 PM,79.0,57.7,48,30.06,10.0,South,4.6,-,N/A,,Clear,170,2013-08-24 00:35:00
7:55 PM,77.4,58.6,52,30.06,10.0,South,4.6,-,N/A,,Clear,170,2013-08-24 00:55:00
8:15 PM,75.9,59.0,56,30.06,10.0,SSE,3.5,-,N/A,,Clear,150,2013-08-24 01:15:00
8:35 PM,74.5,59.5,60,30.07,10.0,SSE,4.6,-,N/A,,Clear,160,2013-08-24 01:35:00
8:55 PM,74.1,59.9,61,30.07,10.0,SSE,3.5,-,N/A,,Clear,160,2013-08-24 01:55:00
9:15 PM,72.3,60.3,66,30.08,10.0,South,4.6,-,N/A,,Clear,170,2013-08-24 02:15:00
9:35 PM,71.6,60.6,68,30.08,10.0,South,3.5,-,N/A,,Clear,180,2013-08-24 02:35:00
9:55 PM,71.2,60.8,69,30.08,10.0,South,4.6,-,N/A,,Clear,170,2013-08-24 02:55:00
10:15 PM,70.7,61.2,72,30.08,10.0,South,4.6,-,N/A,,Clear,170,2013-08-24 03:15:00
10:35 PM,71.2,61.7,72,30.08,10.0,South,6.9,-,N/A,,Clear,180,2013-08-24 03:35:00
10:55 PM,70.9,61.7,73,30.08,10.0,South,5.8,-,N/A,,Clear,170,2013-08-24 03:55:00
11:15 PM,70.3,61.7,74,30.08,10.0,South,5.8,-,N/A,,Clear,170,2013-08-24 04:15:00
11:35 PM,69.4,61.9,77,30.08,10.0,SSE,4.6,-,N/A,,Clear,160,2013-08-24 04:35:00
11:55 PM,70.0,62.1,76,30.08,10.0,SSE,5.8,-,N/A,,Clear,160,2013-08-24 04:55:00